Wind_Speed
33 30 30 29 29 28 27 25 23 21 19 18 16 15 14 14 14 13 12 11 10 10 9 8 8 8 9 9 9 10 10 11 11 11 11 11 12 12 12 12 12 13 13 14
36 34 32 31 30 29 28 27 25 23 21 19 19 17 16 16 15 15 15 13 12 11 11 10 10 9 9 10 10 11 11 12 12 11 11 12 13 13 13 13 13 14 14 14
35 34 33 33 31 30 29 27 26 25 23 21 20 19 18 18 17 17 17 16 14 13 13 13 11 10 11 11 12 12 13 13 13 12 12 13 13 14 14 14 14 14 15 15
34 34 34 31 31 30 29 28 26 26 24 23 22 21 20 20 20 19 18 18 16 14 14 13 13 12 12 12 13 13 13 13 13 13 14 14 15 14 14 15 15 15 15 16
35 33 34 33 32 30 29 28 27 26 25 24 23 22 21 20 21 21 20 20 18 16 15 15 14 14 13 14 14 14 14 14 14 15 15 15 15 16 16 16 17 16 16 16
36 34 33 33 32 30 29 29 28 27 26 25 24 23 22 21 21 21 22 21 20 18 17 17 16 16 16 16 16 16 15 15 15 16 16 16 16 17 17 18 18 17 17 17
36 34 32 33 31 30 30 30 28 27 26 25 25 24 23 22 21 22 22 21 20 19 18 18 18 18 19 19 18 18 17 17 17 17 17 18 18 18 19 19 19 18 18 18
37 34 34 34 31 31 30 29 27 27 26 26 25 25 24 23 22 22 22 22 21 21 21 20 20 21 21 21 20 20 19 19 19 19 19 19 19 20 20 21 20 20 19 19
38 37 36 34 32 31 31 30 29 28 27 27 26 25 25 24 23 23 24 24 24 24 23 22 23 23 23 23 23 22 22 22 22 21 22 22 22 22 22 23 22 22 22 21
39 38 36 34 32 31 31 31 31 30 29 28 27 26 26 25 24 24 25 25 25 25 25 25 25 24 24 24 24 24 24 24 24 24 24 24 24 24 25 25 25 25 25 24
39 38 36 35 33 32 31 31 32 32 31 30 28 27 27 26 26 26 26 26 27 27 27 27 26 26 26 26 26 26 26 26 26 25 26 26 26 26 26 26 25 26 25 25
40 39 37 36 34 33 32 31 32 32 32 31 30 29 28 27 28 28 28 28 28 29 28 28 28 27 27 27 28 28 28 28 27 27 27 27 27 27 27 26 26 26 26 26
40 39 38 36 35 34 33 32 32 32 31 31 31 30 30 30 30 30 31 31 30 30 29 30 30 30 29 29 29 29 29 29 28 29 28 28 28 27 27 26 26 26 26 25
39 39 38 38 36 35 34 34 33 32 32 32 31 31 31 31 32 31 32 32 32 31 31 31 31 31 31 31 31 31 30 30 29 29 29 29 28 27 27 27 27 27 27 26
39 39 38 38 37 36 36 35 35 34 34 33 32 32 32 32 32 32 33 33 33 33 33 33 33 32 32 32 32 32 32 32 31 30 30 29 29 28 28 28 28 28 28 28
38 38 38 38 38 38 37 36 36 35 35 34 33 33 33 33 33 34 34 34 34 34 33 33 33 33 33 33 33 32 31 31 30 30 30 30 29 29 29 29 29 29 30 30
38 38 38 38 38 38 38 37 37 36 35 35 35 34 34 34 34 34 34 34 34 34 34 34 34 34 35 35 34 32 31 30 30 30 30 30 30 30 30 30 31 31 31 32
37 37 38 37 37 37 37 38 38 37 36 36 35 35 35 34 34 33 33 34 34 34 35 35 35 34 34 33 33 32 32 32 32 32 32 31 31 31 32 32 32 33 33 33
36 37 37 38 37 37 37 37 37 37 37 37 36 37 36 35 34 34 34 33 34 35 35 35 35 35 34 33 33 34 34 33 32 31 31 31 31 32 33 33 33 33 33 33
35 36 36 36 36 36 36 35 35 35 35 36 36 36 36 35 35 34 34 34 34 34 33 34 33 32 33 33 34 34 33 33 32 32 31 31 31 32 33 33 33 33 33 34
34 35 34 34 34 34 35 35 35 35 35 34 34 35 35 35 35 34 34 34 34 34 34 33 33 32 32 33 33 33 32 32 32 31 31 31 32 32 32 32 33 33 33 33
32 32 32 32 32 33 34 34 34 34 34 35 35 35 34 34 33 33 33 34 33 33 33 34 34 33 32 33 32 31 31 31 31 31 31 31 31 30 30 31 31 31 32 32
29 30 30 30 30 30 31 31 31 31 31 32 33 33 33 32 32 31 32 33 33 33 33 32 32 32 33 32 30 30 30 30 30 30 30 30 30 31 31 31 30 31 31 32
26 27 27 28 27 27 28 29 29 29 29 30 30 31 31 31 31 30 30 31 32 32 32 32 31 30 30 30 29 28 28 29 29 30 30 30 31 31 32 32 31 32 32 32
24 24 24 25 25 25 25 26 27 27 27 27 28 28 28 29 29 29 29 30 31 31 31 31 30 30 29 29 28 27 28 29 29 30 30 31 32 32 32 32 32 32 32 32
22 22 23 22 22 23 23 23 23 24 25 26 26 27 27 27 27 27 28 29 30 30 30 30 29 28 28 28 28 28 28 29 29 29 30 31 31 31 31 30 30 31 31 31
20 21 21 21 21 21 21 21 21 22 22 23 24 24 25 25 25 25 26 27 28 28 28 27 27 28 28 28 28 28 27 27 28 28 29 29 29 29 29 29 30 31 31 31
Wind_Direction
221 224 228 229 229 230 229 230 233 238 236 240 244 246 248 253 255 257 265 273 281 290 295 297 300 306 313 319 325 326 325 326 327 327 327 330 331 331 329 328 324 323 322 320
223 225 227 228 229 230 231 232 233 236 239 237 241 243 244 249 252 253 259 266 273 280 283 284 286 292 300 308 313 319 319 318 320 320 321 323 326 327 327 324 322 320 319 320
223 224 226 228 228 229 230 231 233 236 239 238 238 240 242 245 249 251 254 259 265 273 277 278 279 286 294 301 305 308 311 314 314 312 314 317 320 321 321 320 319 319 318 318
221 223 225 227 228 229 230 231 233 235 237 239 240 241 243 245 248 250 252 256 261 268 270 272 275 281 288 295 299 302 307 309 310 309 312 313 315 315 317 318 316 316 315 315
220 222 225 227 227 228 229 232 234 235 238 240 241 243 244 245 248 249 252 255 259 263 267 269 273 277 282 289 295 298 303 305 305 306 307 310 312 313 313 315 314 312 311 312
220 220 224 229 229 229 231 234 234 236 238 240 241 243 245 245 246 248 251 256 260 262 264 268 272 276 281 287 291 295 299 301 302 304 305 306 307 309 310 312 312 311 310 311
220 223 225 228 227 228 230 234 235 235 237 238 240 241 245 246 245 246 250 253 257 262 264 266 269 274 279 284 287 291 294 297 299 300 302 303 304 305 306 307 308 307 308 309
220 222 227 228 227 228 230 232 234 235 236 237 239 241 243 245 247 248 250 252 255 260 263 265 267 271 276 279 283 286 289 292 294 296 298 301 302 301 302 303 302 302 302 303
221 224 228 230 230 230 230 232 233 235 235 236 238 240 241 243 246 249 251 252 254 258 260 263 266 270 274 277 280 282 285 288 291 293 295 297 298 299 298 299 298 299 297 298
224 226 229 231 231 231 230 231 232 234 235 236 238 240 243 244 246 249 251 252 255 258 260 264 266 269 273 276 279 281 283 285 287 289 291 292 294 295 297 297 297 297 294 294
224 226 228 229 230 231 232 232 232 234 236 237 239 242 244 245 246 248 250 253 256 259 261 262 264 268 272 275 277 279 281 283 285 286 288 290 291 292 293 293 296 297 295 294
223 224 227 228 229 230 231 232 234 235 236 238 240 242 244 247 248 249 252 255 257 259 260 262 264 267 270 273 275 277 279 279 281 285 287 288 289 290 290 293 294 297 297 294
224 225 227 228 230 231 232 233 234 236 238 238 240 243 245 248 250 253 255 257 259 259 260 262 264 266 269 271 273 276 279 279 280 283 285 286 288 289 289 290 292 296 296 293
224 225 227 228 230 231 232 233 235 236 238 240 242 244 247 249 251 254 256 257 259 260 260 262 263 265 268 269 272 273 275 277 279 281 283 284 285 286 288 290 291 294 296 295
224 225 226 228 229 230 232 233 235 237 240 242 245 246 249 250 252 254 255 256 258 259 261 262 263 265 267 269 271 272 273 275 276 278 280 282 284 284 286 288 289 291 294 293
225 226 227 228 229 231 232 234 236 239 242 244 247 249 251 253 254 256 256 255 257 258 260 262 263 264 265 267 268 269 271 273 274 276 279 281 282 283 284 286 287 289 291 292
225 226 227 229 231 233 234 236 238 241 244 246 249 251 254 255 256 257 255 255 257 258 259 262 262 264 264 264 265 266 268 271 273 275 277 279 280 280 282 284 286 288 290 290
225 226 227 229 232 234 236 238 240 242 245 248 251 253 254 255 255 256 256 256 257 258 259 262 263 264 266 265 264 265 267 270 273 275 276 277 278 280 282 284 285 287 289 288
225 227 229 231 233 236 238 241 243 245 248 250 252 253 254 255 255 256 257 257 258 259 260 262 263 264 265 266 266 266 267 269 272 274 274 275 277 280 281 283 284 286 288 289
227 229 231 233 236 238 240 243 245 247 249 251 252 253 254 254 255 256 256 258 259 260 260 261 261 263 263 264 266 267 268 268 269 272 274 274 277 279 280 282 284 286 288 290
228 230 232 234 237 239 241 244 246 248 249 250 252 253 254 254 255 255 255 257 258 260 261 262 262 262 264 265 265 266 266 267 269 271 273 276 278 279 280 282 284 285 286 289
229 230 231 233 236 239 242 244 246 248 250 250 251 253 253 253 254 255 255 257 258 259 261 261 262 263 266 266 265 266 267 269 271 272 274 277 279 280 283 285 286 286 287 288
228 229 231 234 237 240 242 243 245 247 249 250 250 251 252 252 253 255 256 257 258 260 262 263 264 264 265 265 266 267 268 269 271 272 274 276 278 281 283 285 285 287 287 289
225 227 230 233 235 238 240 241 243 246 248 250 251 251 251 252 254 255 257 258 257 258 261 264 264 264 264 264 265 266 267 269 270 272 274 276 279 280 282 282 284 286 287 289
224 226 229 231 234 236 238 240 241 243 246 247 248 250 252 253 254 255 256 258 259 259 260 262 262 262 263 264 265 267 269 271 272 273 274 276 278 280 281 281 283 285 287 289
224 226 228 230 232 234 237 238 239 241 243 245 247 251 253 253 254 255 256 257 258 257 258 259 259 259 260 262 265 268 271 273 273 273 274 276 278 279 280 281 283 286 288 289
224 226 228 231 232 233 234 237 239 241 244 246 248 251 252 253 255 257 258 257 257 256 256 256 256 258 261 263 265 267 270 272 273 274 275 277 279 281 282 283 285 287 288 289
Height
5873 5877 5881 5884 5889 5893 5897 5901 5905 5907 5909 5910 5911 5913 5914 5914 5915 5915 5916 5916 5916 5916 5915 5914 5913 5912 5911 5910 5909 5908 5906 5905 5903 5902 5900 5898 5896 5894 5892 5890 5889 5887 5886 5884
5865 5870 5874 5878 5883 5887 5891 5895 5898 5901 5904 5905 5907 5908 5909 5910 5911 5912 5913 5913 5913 5913 5912 5912 5911 5910 5910 5908 5907 5906 5905 5903 5901 5900 5898 5896 5894 5892 5890 5889 5887 5885 5883 5881
5859 5864 5868 5872 5877 5881 5885 5889 5892 5895 5899 5900 5902 5904 5905 5906 5907 5908 5909 5909 5910 5910 5909 5909 5908 5908 5907 5906 5905 5904 5902 5901 5899 5897 5896 5894 5892 5890 5888 5886 5884 5882 5880 5879
5853 5858 5862 5868 5870 5875 5879 5882 5886 5889 5892 5894 5896 5898 5900 5901 5902 5903 5904 5905 5905 5906 5906 5906 5905 5905 5904 5903 5902 5901 5899 5898 5896 5895 5893 5891 5890 5888 5886 5884 5882 5880 5878 5876
5846 5851 5856 5860 5864 5869 5873 5876 5880 5883 5886 5889 5891 5893 5895 5896 5897 5898 5900 5900 5901 5902 5902 5902 5902 5902 5901 5900 5899 5898 5896 5895 5893 5892 5890 5888 5887 5885 5883 5881 5879 5876 5874 5872
5839 5845 5850 5855 5858 5863 5868 5870 5874 5877 5880 5883 5885 5888 5889 5891 5892 5893 5894 5895 5896 5897 5898 5898 5898 5898 5897 5896 5896 5894 5893 5891 5890 5888 5887 5885 5883 5881 5879 5877 5875 5873 5871 5869
5832 5838 5843 5846 5852 5857 5862 5864 5868 5871 5874 5877 5879 5882 5884 5885 5886 5888 5889 5890 5891 5892 5893 5893 5894 5893 5893 5892 5891 5890 5889 5888 5886 5884 5883 5881 5879 5877 5875 5873 5871 5869 5867 5865
5825 5832 5837 5839 5845 5850 5853 5857 5861 5864 5867 5870 5873 5875 5877 5879 5881 5882 5884 5885 5886 5887 5888 5888 5888 5888 5888 5887 5886 5886 5885 5883 5882 5880 5879 5877 5875 5873 5871 5869 5867 5865 5863 5861
5819 5825 5828 5833 5838 5842 5846 5850 5854 5857 5860 5863 5866 5869 5871 5873 5875 5876 5878 5879 5880 5881 5882 5882 5883 5883 5882 5882 5881 5880 5879 5878 5876 5875 5873 5872 5870 5868 5866 5863 5861 5859 5858 5856
5811 5816 5821 5826 5830 5835 5838 5842 5846 5850 5853 5856 5859 5862 5864 5867 5868 5870 5871 5873 5874 5874 5875 5876 5876 5876 5876 5876 5875 5874 5873 5872 5871 5869 5868 5866 5864 5862 5860 5858 5856 5853 5851 5850
5802 5808 5813 5818 5822 5827 5831 5835 5839 5842 5846 5849 5852 5855 5857 5859 5861 5863 5864 5866 5867 5868 5869 5869 5869 5870 5870 5869 5868 5867 5866 5865 5864 5863 5861 5860 5858 5856 5854 5852 5850 5847 5845 5843
5794 5800 5806 5810 5815 5819 5824 5827 5831 5835 5838 5841 5845 5847 5850 5852 5854 5855 5857 5858 5859 5860 5861 5861 5862 5862 5862 5862 5861 5860 5859 5858 5857 5856 5855 5853 5851 5849 5847 5845 5843 5841 5839 5836
5787 5792 5797 5802 5807 5811 5815 5819 5823 5827 5830 5833 5837 5839 5842 5844 5846 5847 5849 5850 5851 5852 5853 5853 5854 5855 5855 5854 5853 5853 5852 5851 5850 5849 5847 5846 5844 5842 5840 5838 5836 5834 5832 5829
5778 5784 5789 5794 5799 5803 5807 5811 5815 5818 5822 5825 5828 5831 5834 5836 5837 5839 5840 5841 5842 5843 5844 5845 5845 5846 5846 5845 5845 5845 5844 5843 5842 5841 5839 5838 5836 5835 5833 5831 5829 5827 5825 5823
5770 5776 5781 5786 5791 5795 5799 5803 5807 5810 5813 5816 5820 5822 5824 5826 5828 5829 5830 5832 5833 5834 5835 5835 5836 5837 5837 5836 5836 5836 5835 5834 5833 5832 5831 5830 5829 5827 5825 5823 5821 5820 5818 5815
5762 5767 5772 5777 5782 5786 5790 5794 5798 5802 5805 5808 5811 5813 5815 5817 5818 5820 5821 5822 5823 5824 5825 5826 5826 5827 5827 5827 5827 5826 5825 5825 5824 5824 5822 5821 5820 5819 5817 5815 5813 5811 5809 5807
5753 5759 5764 5769 5773 5777 5782 5786 5789 5793 5796 5799 5801 5803 5805 5807 5809 5810 5812 5813 5814 5815 5815 5816 5816 5817 5817 5816 5816 5816 5816 5816 5815 5814 5814 5813 5811 5810 5809 5807 5805 5803 5801 5798
5745 5750 5755 5760 5764 5768 5772 5776 5780 5783 5787 5789 5791 5793 5795 5797 5799 5801 5802 5803 5804 5805 5805 5806 5807 5807 5806 5806 5806 5807 5807 5807 5806 5805 5805 5804 5802 5801 5800 5798 5795 5793 5791 5789
5737 5742 5746 5751 5755 5759 5763 5767 5771 5774 5777 5779 5782 5783 5785 5787 5789 5791 5792 5793 5794 5795 5795 5796 5796 5797 5797 5797 5797 5797 5797 5797 5796 5795 5795 5794 5793 5792 5790 5788 5786 5784 5781 5779
5729 5733 5738 5742 5746 5751 5754 5758 5761 5764 5767 5769 5771 5773 5775 5777 5779 5781 5782 5783 5784 5785 5786 5786 5786 5786 5787 5787 5787 5787 5787 5786 5786 5786 5785 5784 5783 5782 5780 5778 5776 5774 5771 5769
5721 5725 5729 5734 5738 5742 5745 5748 5751 5754 5757 5759 5761 5763 5765 5767 5769 5770 5772 5773 5775 5775 5776 5776 5777 5777 5777 5777 5777 5776 5777 5776 5776 5776 5775 5775 5774 5772 5770 5769 5767 5764 5762 5759
5713 5717 5721 5725 5729 5732 5736 5739 5742 5744 5746 5749 5751 5753 5755 5757 5758 5760 5761 5763 5764 5765 5766 5766 5767 5768 5768 5768 5767 5767 5767 5767 5767 5767 5766 5765 5764 5763 5761 5759 5757 5754 5752 5750
5706 5710 5714 5718 5721 5724 5727 5729 5732 5734 5736 5738 5740 5743 5745 5747 5749 5750 5751 5753 5754 5755 5756 5756 5757 5758 5758 5758 5758 5758 5758 5758 5758 5757 5757 5756 5755 5754 5752 5750 5748 5745 5743 5741
5700 5704 5707 5710 5713 5716 5719 5721 5724 5726 5728 5730 5732 5734 5736 5737 5739 5740 5742 5743 5744 5745 5746 5746 5747 5748 5749 5749 5749 5749 5749 5748 5748 5748 5747 5746 5745 5744 5742 5740 5738 5736 5734 5731
5694 5697 5701 5704 5707 5709 5712 5714 5716 5718 5720 5722 5724 5725 5727 5729 5730 5732 5733 5734 5735 5735 5736 5737 5737 5738 5739 5739 5739 5739 5739 5739 5738 5738 5737 5736 5735 5734 5732 5730 5729 5727 5724 5722
5689 5692 5695 5698 5701 5703 5705 5707 5709 5711 5713 5714 5716 5718 5719 5721 5722 5723 5724 5725 5726 5727 5727 5728 5728 5729 5729 5730 5730 5730 5730 5730 5729 5728 5727 5726 5725 5724 5723 5721 5719 5717 5715 5712
5685 5688 5690 5692 5695 5697 5699 5701 5703 5705 5707 5708 5710 5711 5712 5714 5715 5716 5716 5717 5717 5718 5719 5719 5720 5720 5721 5721 5721 5721 5721 5720 5720 5719 5718 5717 5716 5715 5713 5711 5710 5708 5705 5703